Theta_e
345 347 351 354 354 352 353 354 354 355 354 351 348 346 346 347 346 345 348 345 345 344 347 348 348 349 348 350 349 348 351 351 352 356 356 356 356 356 356 357 357 358 359 358 359 358 359 357 356 357 359 357 356 356 354 352 350 349 350 353 356 357 355 351 346 345 353 359 357 356 357 356 353 358 355 357 354 356 357 354 355 351 351 352 353
346 348 351 354 352 353 353 354 355 354 354 352 350 347 345 345 346 347 345 346 346 344 344 345 349 350 350 349 349 349 349 350 352 352 355 355 356 358 358 356 358 358 358 357 359 362 359 355 356 357 358 358 356 354 354 352 349 349 349 355 355 355 357 353 350 347 344 352 356 359 360 359 352 357 356 355 354 357 354 355 356 353 351 355 351
352 353 354 352 353 353 354 354 353 352 348 350 349 349 348 348 347 347 347 345 348 346 345 344 343 346 349 351 350 350 350 350 352 351 353 355 355 355 356 354 353 358 359 359 361 361 359 358 357 356 356 352 352 353 354 351 353 355 354 354 352 353 356 357 353 348 347 349 355 353 356 358 357 356 356 359 358 356 355 355 356 357 356 354 355
353 354 352 353 355 350 350 352 355 352 349 348 351 351 352 351 350 347 346 348 348 345 347 345 345 344 345 348 353 351 350 352 351 351 351 354 355 354 353 354 355 355 357 359 360 360 358 356 355 355 355 354 355 356 355 354 351 353 352 355 353 354 356 360 354 350 353 348 354 355 358 353 357 360 360 358 356 355 357 359 358 354 353 354 353
354 352 351 351 353 350 348 351 351 352 350 351 349 351 351 351 352 353 352 349 345 345 347 347 347 348 347 346 347 351 353 354 352 349 349 352 355 355 355 354 354 355 356 355 362 357 356 356 357 356 356 354 354 354 351 352 353 352 352 352 355 356 359 360 358 359 354 351 353 357 357 355 358 359 359 355 355 356 356 357 359 353 351 353 354
352 352 353 352 351 354 356 353 352 351 351 352 351 350 349 349 349 349 358 355 349 348 347 349 350 350 350 349 349 349 349 352 352 351 350 350 350 352 354 355 356 355 355 356 358 358 356 355 355 357 356 353 353 357 354 355 353 355 352 352 356 357 354 354 358 357 353 351 350 350 352 354 351 354 358 357 355 352 351 354 357 353 350 350 353
355 357 356 354 352 353 354 353 353 352 352 351 352 353 355 352 352 349 351 352 350 349 352 352 349 348 348 352 353 352 350 351 352 354 353 351 351 352 352 352 354 355 356 357 356 353 353 354 355 357 355 355 355 356 356 355 358 355 353 353 356 353 350 350 353 354 353 349 349 350 349 352 352 349 354 359 356 354 350 350 346 351 350 348 349
351 355 357 355 353 353 354 355 354 351 354 354 354 355 355 356 356 353 355 352 351 351 351 352 350 350 353 351 352 355 356 354 353 354 355 355 353 353 354 354 353 355 355 351 351 351 351 352 354 357 357 356 358 356 356 354 354 356 355 357 357 355 353 352 349 351 351 350 348 348 349 349 350 356 359 355 352 353 353 349 342 342 343 346 350
353 354 355 355 355 355 355 355 356 356 356 354 352 352 354 356 356 354 353 350 352 353 354 353 352 349 349 353 351 352 354 355 358 357 356 358 361 356 354 353 354 353 354 354 354 353 353 353 353 356 363 368 368 367 362 362 359 357 358 356 352 353 353 349 350 348 348 350 348 350 348 349 350 350 350 351 351 350 351 347 343 346 347 345 348
348 349 351 352 355 355 354 354 354 354 354 355 354 353 352 352 355 354 356 356 355 356 355 354 353 352 349 347 349 349 354 359 360 358 361 362 357 357 354 356 356 356 356 352 353 354 356 354 357 365 363 365 364 365 366 366 365 361 359 356 354 352 351 350 350 350 349 347 347 346 345 345 345 347 348 348 352 350 347 346 342 345 345 345 346
351 350 349 350 353 354 353 353 353 351 351 352 352 353 353 354 354 354 352 352 353 355 358 355 354 352 350 348 348 347 350 356 355 340 344 355 360 354 353 356 354 356 356 352 350 352 353 355 354 361 363 365 363 369 368 367 365 365 366 365 362 353 350 351 352 353 351 349 347 347 345 345 346 348 351 352 354 351 347 347 346 345 342 339 336
346 344 347 348 348 348 350 350 349 348 349 349 349 350 350 350 351 352 353 354 354 355 354 352 355 353 351 351 351 352 353 359 337 340 344 347 359 360 356 353 354 356 354 352 353 354 353 357 357 357 353 353 353 360 363 365 364 364 363 363 364 365 364 357 353 352 351 348 347 347 346 345 346 348 349 348 349 348 349 347 345 345 343 341 339
343 342 342 343 343 347 348 348 348 348 349 349 350 349 349 348 347 347 347 350 351 349 350 354 352 354 356 354 356 351 353 349 337 340 340 341 347 363 352 351 352 354 352 350 350 352 354 355 358 358 353 358 359 356 356 359 363 363 362 361 362 361 350 349 355 358 354 351 350 349 349 348 347 349 352 351 354 347 349 349 348 347 346 344 345
339 339 340 341 342 345 347 348 349 349 349 349 347 346 345 344 345 348 349 348 347 349 353 351 350 350 351 354 353 351 343 335 332 334 336 339 341 350 356 353 352 355 353 352 351 351 353 355 354 357 353 355 354 356 357 356 355 357 357 358 358 363 364 356 351 353 359 357 353 351 352 354 352 352 359 357 351 348 348 349 351 349 349 348 348
337 337 337 339 341 343 345 345 345 345 347 348 347 345 345 345 346 344 344 345 347 347 346 347 349 353 355 352 347 345 336 327 327 330 329 332 337 350 352 355 353 353 353 352 351 352 354 357 355 352 350 352 356 359 359 358 355 356 355 355 355 355 355 356 358 358 357 358 356 355 354 354 354 355 355 356 354 353 353 352 348 347 348 354 354
335 336 336 338 339 340 341 340 340 341 341 342 342 342 342 343 343 345 346 345 346 346 347 348 350 352 352 347 346 345 332 320 321 322 324 326 334 349 352 354 355 355 356 356 356 356 356 352 349 349 349 350 348 342 348 353 351 351 351 352 354 355 355 361 349 352 361 357 356 355 355 356 352 357 354 351 351 355 356 349 348 347 347 346 345
332 334 335 336 337 338 339 339 339 339 339 339 339 340 342 342 343 345 342 341 340 340 342 345 347 349 350 349 346 336 325 319 316 316 317 320 335 348 352 354 354 354 354 354 352 353 354 352 350 348 347 347 337 326 334 351 347 348 349 349 351 351 352 356 347 341 340 338 338 338 336 333 332 330 329 332 344 352 349 346 344 344 343 339 341
331 333 333 334 335 336 337 338 338 339 339 339 339 340 341 342 343 344 338 335 333 333 333 333 333 337 346 347 341 328 323 319 314 313 314 317 332 347 352 352 351 350 350 350 352 351 352 356 354 346 341 333 324 324 328 346 346 346 346 346 346 348 349 353 354 355 340 334 334 333 333 333 334 335 336 334 335 347 347 344 346 346 342 342 340
331 332 333 334 335 335 336 337 338 338 338 338 340 340 341 342 344 339 336 333 331 331 332 328 329 330 331 332 337 326 323 321 314 313 313 314 328 342 345 348 346 347 348 348 350 348 347 346 344 337 332 327 318 320 323 337 342 342 343 341 342 341 345 342 342 344 348 349 349 347 348 347 350 347 348 349 348 354 349 345 346 345 343 341 341
333 335 336 336 336 335 335 336 336 336 336 337 338 339 340 340 341 337 335 333 330 328 327 326 324 324 327 327 327 326 323 321 318 312 311 312 317 328 326 327 328 333 337 344 347 347 339 332 331 323 319 318 315 314 316 320 329 332 335 336 336 337 338 334 338 340 342 345 346 349 350 350 349 349 349 349 351 353 352 349 347 345 343 342 342
332 334 335 335 335 334 334 334 334 334 335 335 337 337 337 337 337 337 335 333 330 328 326 324 323 322 323 323 323 324 325 322 321 312 310 311 313 319 321 322 324 327 331 334 336 341 340 333 332 328 317 316 313 311 309 315 323 329 332 332 335 333 331 331 334 341 336 337 339 342 345 348 349 348 347 347 349 346 338 334 338 343 345 343 342
329 330 331 332 333 333 334 335 336 335 335 335 333 333 335 335 335 335 333 331 329 327 327 326 323 322 322 323 322 321 325 326 323 316 312 310 311 315 320 322 325 327 329 327 328 328 331 333 333 328 316 315 312 309 309 312 316 329 334 322 318 319 328 334 334 333 334 334 335 336 338 341 344 346 346 347 345 340 334 333 333 335 334 332 334
329 328 329 329 330 331 332 331 332 333 333 333 331 330 332 333 333 333 332 330 328 327 326 325 323 321 320 321 321 322 322 325 324 325 316 311 310 312 315 321 320 328 325 324 325 327 330 333 333 328 314 309 306 308 311 312 326 330 315 314 316 320 327 331 334 334 335 335 336 336 337 339 341 344 344 334 332 332 330 330 331 332 332 331 329
322 325 330 329 328 328 330 330 327 326 326 326 325 324 325 327 328 331 331 329 327 326 325 325 323 322 320 319 321 322 323 323 325 324 323 316 312 311 313 315 319 326 329 326 327 330 328 328 327 313 308 305 306 309 313 319 325 315 314 318 323 333 335 334 334 335 336 335 336 336 337 339 341 334 330 330 327 326 327 328 328 328 327 325 325
323 320 318 318 319 319 319 320 323 325 325 323 320 319 320 322 322 323 328 328 327 325 325 326 324 323 323 322 321 321 322 322 321 324 323 322 317 314 315 318 318 319 329 330 331 328 320 312 310 311 312 311 314 321 327 331 322 320 320 325 337 335 336 334 334 335 335 335 336 334 330 329 328 328 328 328 329 327 326 326 328 328 328 329 328
330 324 320 319 317 317 316 317 318 319 321 322 322 318 317 318 319 319 321 324 324 323 323 323 322 323 322 323 323 323 322 319 318 318 322 322 321 318 317 320 326 326 328 327 325 320 317 316 317 319 323 326 333 334 333 334 328 330 331 335 333 333 333 331 330 332 330 328 328 326 327 327 327 328 330 330 328 327 326 326 327 327 326 325 323
327 324 324 321 318 316 314 314 315 317 318 319 321 320 318 315 315 317 316 318 321 324 323 323 320 319 320 321 323 324 322 319 316 315 315 315 316 316 318 321 323 322 322 322 321 320 323 327 325 320 321 323 325 328 331 332 332 331 331 331 332 332 332 330 328 327 327 326 326 326 327 328 329 329 327 327 327 328 330 330 327 327 328 328 326
322 323 323 323 322 320 320 324 319 315 317 317 316 317 318 317 313 313 312 313 318 319 322 322 320 318 316 317 318 318 318 317 315 310 312 312 311 312 315 318 315 315 317 317 314 317 322 327 329 337 339 337 335 334 332 330 330 329 328 328 328 330 332 333 332 328 327 327 327 328 327 326 324 324 325 325 325 327 329 329 328 327 328 325 322
322 319 320 320 323 326 323 320 318 317 316 316 314 311 310 314 316 314 313 311 313 319 320 320 321 320 318 316 315 315 316 315 315 308 307 303 305 307 312 312 310 312 316 309 313 320 326 330 330 331 333 332 330 329 328 327 327 327 327 326 326 326 326 325 324 325 325 325 324 324 323 323 322 323 323 323 324 325 327 327 328 325 323 322 319
320 320 321 321 323 325 322 322 320 319 317 317 315 315 310 304 303 316 315 313 306 300 302 315 317 319 319 316 316 314 313 315 307 297 295 296 297 298 299 297 297 303 307 305 310 321 326 326 326 326 326 326 325 326 326 325 325 325 325 325 325 325 325 324 324 324 325 324 324 322 322 322 322 323 323 323 323 325 324 325 325 324 319 317 316
320 320 323 323 327 327 324 325 322 324 320 318 318 317 315 314 299 299 306 308 303 295 295 297 300 304 320 319 315 309 309 303 295 295 296 296 296 296 296 297 298 298 301 317 324 323 322 322 322 323 323 322 322 322 322 324 325 324 323 322 322 322 322 322 322 323 324 323 323 323 323 323 322 323 322 323 322 321 321 321 321 320 320 319 317
318 319 321 323 327 327 322 325 327 327 326 325 319 319 316 314 315 302 297 302 301 297 294 294 294 295 297 306 323 318 309 303 297 295 296 297 297 296 297 297 298 299 306 312 323 321 320 320 320 320 320 319 320 321 320 320 321 320 320 320 319 319 319 318 318 319 318 318 318 319 320 321 321 321 323 323 323 320 319 318 317 316 316 316 316
320 320 321 324 324 329 324 323 325 323 324 323 328 324 319 319 315 314 313 299 298 296 296 296 294 294 294 293 294 302 303 297 294 296 296 297 297 297 296 299 299 303 313 319 319 319 319 319 318 318 318 318 317 318 317 318 318 317 317 316 315 315 315 316 316 316 316 316 315 315 315 317 319 318 318 318 317 315 316 315 316 316 314 313 314
324 322 322 324 324 322 321 321 321 322 321 319 321 321 323 324 319 317 315 314 314 308 299 294 294 294 297 295 293 294 292 293 294 296 295 297 298 300 298 307 300 301 311 320 319 318 319 318 317 316 316 317 316 316 315 315 316 316 315 314 314 314 314 315 314 314 314 314 314 314 314 314 315 314 313 312 313 313 312 312 312 310 309 309 309
325 328 327 327 323 322 321 320 321 320 322 320 317 319 320 325 325 325 318 316 315 313 315 317 307 295 305 305 302 293 292 294 296 296 297 298 299 307 309 320 319 319 319 319 319 317 318 317 316 316 315 314 314 315 313 313 313 313 313 312 312 312 312 312 312 312 312 312 312 312 313 314 314 314 313 312 311 310 311 311 311 311 310 309 309
319 326 325 329 323 321 321 319 322 320 320 318 319 320 324 325 323 325 326 326 323 319 319 316 315 313 302 296 295 294 293 294 293 294 297 299 302 309 318 317 317 317 318 318 317 318 318 316 316 315 314 313 313 312 312 312 312 312 312 311 311 310 310 310 311 311 311 310 311 311 310 309 310 311 312 311 311 311 310 311 311 312 312 311 310
317 317 324 324 321 320 320 319 318 322 326 324 321 319 322 323 326 324 326 326 328 324 318 318 315 316 315 320 322 303 299 298 298 297 303 306 309 318 318 317 316 317 317 317 317 317 315 315 316 315 314 313 312 312 312 311 310 311 313 311 311 310 309 309 310 311 309 309 309 309 308 308 308 308 309 307 308 308 309 311 310 310 310 311 312
322 323 321 322 321 319 318 318 320 329 323 321 320 320 323 323 321 321 322 322 325 323 319 319 321 315 316 319 327 324 320 311 308 310 311 308 314 317 317 317 317 315 315 315 315 314 314 315 314 313 314 313 312 312 311 311 310 309 310 309 310 310 310 310 310 309 309 308 308 308 309 308 308 308 308 307 305 305 306 308 306 305 306 309 308
320 324 325 324 325 321 318 321 321 319 318 321 320 322 322 320 319 318 318 318 319 321 323 320 320 319 320 324 323 329 324 319 318 319 316 315 316 315 315 316 315 315 315 315 316 315 313 313 313 313 313 312 312 312 311 310 310 310 309 308 307 307 307 306 307 307 308 307 307 307 306 306 305 305 307 306 304 304 304 305 304 303 302 302 303
320 319 321 322 322 320 319 322 320 317 320 317 316 320 324 321 316 316 316 316 316 318 319 319 318 318 318 317 314 316 318 320 320 316 315 314 314 313 313 313 312 312 312 311 311 311 311 311 311 310 309 309 310 309 308 310 311 310 309 309 307 305 305 306 305 304 304 306 305 304 304 304 304 305 304 305 304 303 304 303 304 303 303 303 303
317 318 323 322 322 319 321 322 320 318 318 319 318 318 317 319 319 320 318 317 317 318 319 318 315 313 310 306 301 306 316 316 318 319 317 316 316 314 312 312 312 312 312 313 312 312 309 309 309 308 308 307 306 306 305 305 305 305 305 305 305 305 304 303 303 303 304 303 304 304 303 304 306 303 302 303 308 306 305 305 304 302 303 305 306
316 315 316 317 318 319 317 319 319 321 320 318 317 318 318 318 318 318 319 318 319 319 317 316 314 313 305 300 299 302 312 316 316 317 320 318 317 316 314 313 312 310 310 309 309 310 310 311 309 308 307 307 306 305 305 303 303 302 302 302 302 302 301 301 301 301 301 301 301 302 302 306 306 306 305 309 304 303 304 304 303 303 303 303 304
317 315 314 316 316 316 316 316 316 313 314 313 315 324 320 317 316 317 316 318 317 316 315 315 315 314 312 308 306 308 312 314 325 315 316 315 314 314 313 312 312 312 311 310 309 309 309 308 309 308 306 305 304 304 303 302 301 300 300 300 300 299 298 300 300 301 300 301 301 302 301 302 303 301 301 302 301 301 302 304 305 303 302 302 303
315 315 315 316 315 315 315 314 315 315 315 320 319 318 318 315 314 315 315 315 315 314 314 314 316 314 312 309 311 312 313 313 314 312 314 314 312 312 312 311 310 310 309 310 309 309 308 308 307 306 306 305 305 304 303 302 301 299 298 298 299 299 297 297 297 298 299 299 300 301 300 301 303 301 302 303 299 299 301 302 305 303 302 302 301
312 312 313 313 315 315 313 316 313 312 318 315 312 312 316 313 314 314 314 313 316 314 314 314 315 316 314 314 314 315 314 313 317 315 312 310 310 309 309 310 310 308 308 309 309 308 307 306 306 305 305 304 304 303 301 301 300 298 297 297 296 295 295 295 296 299 298 298 298 299 300 301 300 300 300 299 303 301 301 300 302 304 301 301 301
312 314 314 313 312 314 314 311 315 312 312 311 310 309 311 310 312 313 314 315 315 314 312 313 313 315 316 314 315 315 314 313 311 310 310 309 309 309 309 309 309 308 307 307 307 307 307 306 305 304 304 303 303 302 300 300 299 298 297 296 296 296 296 295 298 299 296 296 296 298 299 300 300 301 306 301 301 302 301 301 302 302 301 301 301
313 313 314 314 312 312 313 313 312 311 311 311 311 311 310 310 312 312 314 317 314 314 313 313 313 313 313 313 314 314 314 312 312 310 309 310 310 308 307 307 307 307 307 307 307 306 307 306 305 304 304 303 302 301 299 298 296 296 297 295 295 295 293 294 297 296 294 295 297 297 297 298 299 300 304 304 303 302 302 302 303 303 303 302 300
311 312 311 314 311 310 309 309 310 315 310 311 311 311 311 310 311 311 311 312 312 312 312 313 313 312 312 312 313 312 312 312 314 312 311 310 308 307 307 307 306 305 305 305 305 305 306 305 305 304 303 303 302 300 298 297 296 295 295 295 294 293 294 295 295 295 293 294 295 296 296 297 298 299 300 301 299 300 300 300 301 301 302 302 303
311 309 308 310 311 310 310 309 310 308 309 310 310 309 310 309 310 310 310 311 311 311 312 312 311 312 312 312 312 311 311 312 309 310 310 309 307 307 307 307 307 306 306 305 305 304 304 304 305 303 303 301 300 299 298 298 296 296 295 293 294 295 292 293 294 294 293 293 293 294 295 297 298 300 301 301 300 301 301 301 300 301 301 301 301
311 309 310 311 310 309 311 310 308 308 309 308 307 308 309 309 309 309 309 309 309 309 310 311 312 311 310 310 310 309 309 308 308 308 308 307 307 307 307 307 306 305 305 304 304 304 303 303 303 302 302 300 299 298 298 297 296 295 294 292 294 290 290 292 295 294 292 291 292 293 295 297 299 299 299 300 299 301 302 302 302 300 300 300 301
315 311 311 310 308 308 308 307 307 307 306 307 307 307 307 307 307 307 307 306 307 308 308 309 310 310 309 310 310 309 307 307 307 306 306 306 305 306 306 306 305 304 304 303 303 303 302 302 301 301 301 301 299 298 296 295 295 294 294 294 292 289 287 288 289 288 289 290 291 294 296 298 299 299 299 300 300 299 303 302 301 301 301 301 301
Wind_Speed
2 8 9 5 5 7 7 6 7 5 5 6 7 8 8 6 6 7 4 7 7 7 5 5 7 8 8 7 6 4 6 7 5 6 7 6 6 5 5 4 5 6 5 5 4 4 3 2 3 3 3 2 3 2 3 5 5 6 4 0 2 2 4 4 4 5 3 3 2 3 3 3 2 2 3 3 4 5 5 3 4 5 4 3 2
5 6 4 7 5 7 8 8 8 7 6 5 5 6 7 8 5 4 6 6 7 8 7 5 5 8 7 8 7 7 6 7 8 7 7 7 7 6 6 6 4 5 5 5 5 4 3 4 5 4 3 2 3 4 5 5 4 1 3 1 1 3 3 4 5 3 3 2 2 3 1 1 1 1 2 3 4 4 5 4 5 4 4 3 4
3 4 4 3 4 3 2 5 5 6 5 6 9 9 9 8 6 3 4 6 6 7 7 8 7 6 6 6 8 8 7 7 7 7 7 8 8 7 7 6 6 5 6 6 5 4 5 5 6 5 4 5 4 5 4 4 1 1 1 1 1 1 3 4 3 3 4 4 3 1 0 1 1 2 2 1 2 3 3 3 3 4 4 3 4
6 4 5 3 0 5 7 6 6 5 6 5 4 2 2 1 1 5 8 10 10 7 4 7 6 8 8 6 7 8 8 7 8 8 8 8 8 8 7 6 5 5 6 6 7 6 7 6 7 6 4 3 3 1 1 2 2 3 3 0 1 0 1 2 3 3 4 2 2 1 1 1 3 2 2 2 2 3 3 2 2 4 3 4 4
4 2 4 3 1 3 8 8 8 8 8 3 2 3 3 2 2 2 3 2 4 5 9 7 6 8 9 10 8 7 6 6 7 8 7 6 7 8 7 6 6 5 5 6 7 8 7 7 5 4 4 4 3 3 2 2 2 2 1 1 1 1 1 2 1 2 3 3 2 2 2 2 3 3 2 2 3 2 2 2 1 2 3 3 4
3 3 2 3 3 3 3 5 6 6 5 6 7 6 4 5 5 4 3 1 5 5 5 5 10 9 6 9 10 9 7 6 6 6 7 6 6 6 6 7 7 8 8 6 5 5 5 5 5 4 3 4 3 3 1 2 2 2 3 2 1 2 2 1 1 1 2 2 2 2 2 3 2 3 3 2 2 3 3 2 1 2 2 2 1
2 1 3 3 2 1 2 3 5 4 3 3 4 5 5 5 3 4 3 4 4 3 5 4 6 5 10 12 7 7 8 8 6 6 5 4 5 5 5 6 7 7 7 5 4 9 10 8 3 4 4 4 3 3 3 2 3 3 3 2 2 2 2 3 3 3 3 3 2 4 4 4 4 4 3 3 2 3 2 3 2 0 1 1 1
1 1 2 3 3 2 2 3 3 2 2 2 2 2 3 4 4 5 6 6 5 5 5 3 4 3 6 10 11 6 5 6 7 6 5 4 4 4 2 1 1 2 6 7 5 6 6 7 8 6 5 4 3 3 4 3 3 3 3 3 2 3 3 3 2 3 3 3 4 4 4 4 3 4 2 2 1 1 2 2 3 3 2 1 3
2 1 1 1 2 2 2 2 3 2 1 3 3 2 1 0 2 4 6 4 2 4 4 7 5 3 0 2 7 10 6 6 3 3 3 2 2 2 1 1 2 1 1 2 2 4 5 4 7 5 3 5 7 5 5 5 3 4 2 3 3 3 3 3 4 4 4 4 4 4 4 5 5 4 3 3 5 5 3 2 2 3 3 2 3
3 4 4 1 2 2 2 2 2 1 0 0 0 0 2 2 2 2 1 2 2 2 2 0 4 4 2 1 5 9 9 3 6 9 5 2 2 2 2 2 3 3 3 3 2 4 4 4 5 6 5 5 6 7 6 5 5 4 4 4 4 4 4 4 4 4 5 5 6 5 5 6 5 4 4 4 3 1 2 3 2 2 1 3 3
1 1 2 3 1 2 2 3 3 2 1 1 1 0 0 1 2 1 0 0 0 0 0 1 4 5 6 5 5 6 10 1 8 8 7 4 3 3 4 4 3 4 5 4 4 4 4 4 4 6 5 5 3 5 7 7 8 8 7 9 7 6 5 5 5 5 5 6 5 4 5 6 6 4 4 4 2 4 4 3 4 1 1 1 4
6 7 4 2 1 2 2 2 2 2 1 2 2 0 1 2 1 1 1 1 1 0 1 3 4 4 4 7 8 9 9 4 7 7 7 7 4 3 5 5 5 5 5 6 5 4 2 1 3 1 4 4 6 3 4 8 8 10 10 9 10 11 9 6 6 5 4 5 5 6 4 6 5 4 5 3 4 3 3 3 4 4 3 3 2
7 5 4 5 4 3 1 1 1 2 3 2 0 1 0 0 0 0 1 2 2 2 2 1 2 4 4 2 2 4 2 2 2 3 5 7 7 5 6 5 6 6 5 5 5 4 3 2 2 4 3 2 2 4 4 5 9 11 11 11 11 11 11 10 8 7 4 5 6 6 7 5 5 7 4 3 2 3 3 4 4 5 6 5 6
7 6 6 5 5 4 3 3 4 3 3 2 1 1 2 1 1 0 0 0 1 2 2 2 2 2 2 3 5 6 4 8 7 7 5 1 3 2 3 4 4 4 5 4 4 4 4 3 2 3 4 2 1 4 5 6 5 4 4 4 5 6 8 10 12 12 9 7 6 8 7 4 7 5 4 3 3 5 4 6 5 5 5 6 5
7 7 6 7 7 7 7 7 6 6 4 3 3 4 3 2 2 2 2 2 2 2 2 3 3 3 3 5 1 1 2 8 8 6 5 2 2 4 3 4 5 5 5 4 3 4 3 3 2 2 1 0 1 3 4 4 3 4 3 4 4 3 3 3 4 4 5 6 6 8 8 6 7 6 3 2 3 4 6 5 4 3 3 5 5
7 7 8 7 7 7 7 7 6 5 5 5 5 4 3 3 4 3 3 4 3 3 3 2 2 3 3 4 4 1 9 20 16 13 8 3 2 4 4 4 3 3 5 5 4 2 3 4 2 2 1 1 6 7 7 5 4 3 3 4 4 4 5 5 6 6 6 6 6 6 6 4 4 5 3 3 4 5 3 1 1 2 4 4 6
7 7 8 8 7 6 6 6 4 4 3 4 5 4 4 5 5 4 6 7 7 8 6 6 5 4 2 2 2 8 8 15 15 15 13 12 4 3 3 4 4 3 2 4 5 4 4 4 4 2 1 3 6 5 6 6 2 3 4 4 4 5 6 4 6 9 12 13 12 10 9 10 10 9 7 5 4 2 1 3 6 4 5 6 6
6 7 7 7 6 5 5 5 6 5 5 5 5 4 4 5 7 7 8 8 9 8 7 8 9 9 6 4 9 7 6 12 15 16 16 16 9 2 1 2 3 4 3 3 4 4 2 4 6 4 5 4 6 6 7 4 2 2 3 4 6 6 5 4 4 4 3 4 6 8 9 10 11 10 8 8 8 4 4 6 3 3 7 6 6
6 6 6 6 6 6 6 5 5 5 6 7 7 7 6 6 7 8 8 8 8 7 8 8 9 10 11 12 16 11 6 9 15 16 17 18 12 5 4 4 5 4 3 1 4 4 6 10 14 10 7 4 5 5 6 6 1 2 1 1 4 6 5 5 5 7 7 6 4 5 6 7 7 5 5 8 11 11 7 8 6 6 7 6 6
5 4 3 4 4 3 3 4 5 5 6 7 7 7 7 7 8 8 7 7 7 7 7 8 10 9 9 10 9 8 8 7 11 14 15 19 19 9 5 7 6 5 5 5 4 5 7 6 8 9 7 5 5 4 4 5 2 3 4 4 4 5 5 6 7 8 9 8 8 7 7 5 4 4 3 3 4 6 7 7 7 7 7 8 8
6 5 5 5 4 3 3 4 5 5 5 6 6 7 6 7 7 7 7 6 7 8 9 8 8 8 8 8 9 8 7 6 8 13 13 15 16 13 6 8 5 6 6 7 5 5 6 4 4 8 8 7 6 6 5 5 4 2 2 2 3 6 7 6 8 11 8 8 9 9 8 7 6 5 5 4 4 2 4 6 5 3 6 8 9
6 5 6 4 3 3 3 3 4 5 5 6 7 7 6 6 6 7 6 7 8 8 8 7 7 7 7 9 8 6 7 11 6 11 11 13 12 12 6 7 6 6 6 6 6 7 5 4 4 8 10 8 6 5 6 6 5 2 3 4 8 7 5 6 5 6 6 6 6 7 7 7 7 5 6 5 2 5 5 6 5 6 7 5 5
3 3 4 4 4 5 6 7 6 5 6 7 8 8 6 6 6 6 6 7 7 7 6 5 6 6 6 5 4 3 4 6 10 7 10 9 6 7 8 6 9 6 5 4 4 2 2 3 5 9 7 8 7 6 5 6 4 4 8 10 10 10 8 4 4 5 6 6 6 6 6 6 6 6 1 6 6 6 6 6 7 8 9 10 12
5 3 2 3 5 5 4 5 6 6 7 7 8 8 8 7 6 5 5 6 5 6 5 5 5 6 6 5 5 5 5 5 8 11 7 6 8 11 10 9 5 2 1 1 1 1 4 5 6 8 8 7 6 7 7 3 4 9 10 10 10 8 4 5 5 5 6 6 6 6 6 5 5 3 6 6 6 6 7 8 9 10 10 10 11
4 5 6 6 6 6 7 6 6 6 6 7 8 7 7 7 7 7 5 5 5 5 5 5 5 4 4 4 4 4 4 4 4 7 11 10 9 10 8 8 9 7 4 3 4 5 7 8 10 9 8 7 5 4 4 6 11 10 10 11 11 5 6 6 6 6 6 5 5 5 6 7 7 6 6 6 6 6 6 7 7 8 8 8 8
3 4 5 6 6 7 7 7 7 7 7 6 7 6 6 6 6 6 6 6 5 5 5 5 5 4 4 4 4 4 4 5 5 5 6 8 7 10 10 8 10 10 8 5 7 7 7 8 7 6 5 3 3 4 4 6 8 9 11 11 6 6 6 6 6 6 6 7 6 7 7 6 6 5 5 5 7 6 5 6 7 6 6 7 7
4 4 4 6 6 7 7 6 6 7 7 6 6 6 6 6 5 5 5 6 5 5 6 6 6 5 6 5 4 3 4 5 6 5 6 6 6 6 7 6 9 7 5 5 7 5 6 5 5 7 2 3 5 6 7 7 6 7 6 7 7 7 6 6 6 7 7 7 7 6 5 6 6 7 6 6 7 6 5 6 6 5 4 4 5
6 5 6 4 6 5 6 9 8 6 6 6 6 6 6 5 6 5 5 5 6 5 5 5 5 5 5 5 4 5 5 5 5 6 6 5 5 5 5 5 6 6 6 6 6 5 4 5 4 4 7 7 6 5 4 4 6 6 7 6 7 8 9 12 10 7 6 5 6 6 7 7 7 6 6 7 6 6 5 5 4 5 4 3 4
7 6 6 6 4 4 5 5 5 5 6 6 6 5 3 4 4 3 4 3 3 3 5 4 2 2 3 4 4 5 5 5 4 3 4 4 3 5 6 6 7 6 6 7 5 4 4 8 8 8 7 6 5 5 5 5 6 7 7 7 7 7 7 7 8 8 7 8 8 7 7 7 7 7 7 7 7 6 5 6 6 6 5 6 6
5 6 6 6 6 4 3 5 5 5 6 5 5 4 5 6 4 2 2 5 7 7 5 1 0 1 3 2 2 3 2 1 4 5 5 5 4 5 6 7 6 5 7 8 2 5 7 7 8 7 7 6 6 6 5 4 5 7 7 7 7 7 7 7 7 7 7 8 7 7 7 6 6 6 6 6 7 7 8 7 5 5 5 5 6
6 6 6 6 6 4 4 3 3 5 6 5 5 5 4 3 6 7 7 4 5 7 8 8 7 7 1 2 0 1 1 2 4 6 7 8 6 5 6 6 7 8 6 3 8 8 7 7 7 7 7 7 6 6 6 5 5 6 6 7 7 8 8 8 7 7 7 7 7 7 6 6 6 6 6 6 7 7 7 8 8 8 7 6 7
4 4 4 3 4 4 6 6 4 4 3 4 5 4 3 3 1 2 2 3 4 3 5 8 9 8 8 5 1 0 2 2 6 7 7 8 10 10 10 10 10 10 4 4 8 7 7 6 6 6 6 7 7 6 6 6 6 7 6 7 7 7 7 7 7 7 7 8 8 8 8 7 7 7 7 6 6 7 7 7 7 7 6 6 7
2 1 1 2 4 4 6 6 5 5 6 5 3 3 4 3 3 2 0 2 3 4 5 6 7 8 8 8 4 2 1 5 7 8 9 7 7 8 7 8 11 10 10 9 7 7 7 7 7 7 7 7 7 7 7 6 6 6 6 6 6 6 6 6 7 8 8 7 7 7 7 7 7 7 7 7 7 7 6 6 5 5 5 5 4
2 1 0 1 2 6 5 6 5 5 4 3 4 1 0 3 4 2 3 0 1 1 4 7 7 5 6 5 6 5 4 4 6 8 8 9 7 6 6 5 8 8 9 7 7 7 7 7 7 7 6 6 6 6 7 7 6 6 6 6 5 5 6 6 7 7 6 7 7 7 7 7 6 6 6 6 6 6 6 5 5 5 5 4 4
1 3 3 1 2 4 4 3 3 3 4 3 3 4 5 2 2 5 4 4 4 3 2 2 3 4 3 4 5 6 5 5 6 6 9 11 11 8 10 8 8 7 8 7 7 7 7 7 7 6 6 7 6 6 6 6 6 6 5 5 5 5 6 6 6 6 6 6 6 6 6 6 5 5 5 5 5 5 4 4 4 4 5 5 5
2 1 1 2 4 3 2 2 2 2 4 6 5 3 3 4 5 4 3 5 4 4 3 4 2 1 3 7 10 8 7 7 7 9 10 10 9 12 9 7 7 7 6 6 6 7 6 6 7 6 6 6 6 6 6 6 6 5 5 5 6 6 5 6 6 6 6 6 6 6 6 6 6 5 4 4 4 4 3 3 3 3 3 4 4
4 3 3 4 3 2 1 1 3 3 4 4 4 5 4 5 4 4 2 3 4 5 4 4 2 0 1 3 4 5 5 5 7 9 8 9 10 9 7 7 6 7 7 7 6 6 6 6 5 6 5 5 5 5 5 5 4 4 5 5 5 5 5 5 5 5 6 6 5 5 5 5 5 5 5 4 4 4 4 4 4 4 5 6 5
3 3 4 3 3 2 2 2 3 4 3 4 4 4 5 4 3 4 5 4 1 4 5 5 5 5 5 4 6 4 1 2 6 7 5 9 7 6 6 7 7 7 6 6 5 5 6 6 6 6 5 5 4 4 4 4 4 4 4 4 4 4 5 5 4 4 3 3 3 3 3 3 3 4 4 4 5 5 5 5 4 4 4 5 3
4 2 5 4 2 2 1 2 1 2 3 2 2 3 4 2 3 3 3 3 5 3 3 5 5 5 5 2 3 4 2 0 0 1 5 6 6 5 6 7 6 6 5 5 4 5 6 6 5 5 5 5 5 4 3 3 3 3 3 3 4 3 3 4 4 4 4 4 4 4 4 4 4 5 5 4 4 4 4 4 4 4 5 4 4
3 2 3 3 1 1 1 1 2 3 3 2 3 2 1 0 2 3 3 5 5 4 5 5 2 1 2 3 2 2 2 1 4 4 5 4 5 5 6 6 6 6 6 6 6 6 6 5 6 6 5 6 7 8 8 7 6 5 3 3 3 3 3 3 4 5 5 4 3 4 3 3 3 4 4 4 3 4 4 3 3 3 4 4 4
5 5 5 4 4 3 3 3 3 3 3 1 2 2 2 3 3 3 5 5 4 2 4 4 4 3 2 2 1 1 1 3 1 3 4 5 5 6 5 6 6 6 5 5 5 5 6 6 6 5 6 6 6 6 6 7 7 8 8 8 8 8 8 8 8 8 7 7 6 5 5 5 3 3 4 4 4 5 4 3 3 3 3 3 2
5 5 5 5 5 5 4 3 3 1 2 1 2 2 3 2 2 3 3 3 2 2 5 3 2 1 1 5 3 4 2 1 2 1 4 4 5 6 5 6 6 6 6 6 6 6 5 5 5 6 7 6 6 6 6 7 7 7 7 7 7 7 7 7 6 7 7 6 7 7 7 6 5 5 5 5 5 4 5 3 2 3 4 5 4
2 3 4 4 5 6 4 3 2 3 4 2 0 2 2 2 2 1 1 0 1 1 2 5 3 2 1 2 2 3 2 3 3 3 5 6 7 6 6 6 6 6 6 6 5 6 6 6 7 7 6 6 5 6 7 6 6 6 6 6 6 6 6 6 7 7 7 7 7 6 6 6 6 4 4 4 5 5 6 4 2 2 3 5 5
2 3 4 4 5 5 5 5 4 3 3 2 1 3 3 2 3 3 3 3 2 3 4 3 4 2 2 1 1 2 5 5 2 4 6 7 7 6 6 6 6 6 5 6 6 7 7 7 7 6 5 5 6 7 7 6 6 6 5 5 5 6 6 6 6 7 7 7 7 7 7 8 7 6 4 3 4 5 5 5 3 3 5 4 4
4 4 5 6 4 3 1 1 2 2 3 3 3 3 3 4 4 3 2 4 3 3 3 3 3 5 3 1 2 6 6 6 6 6 7 6 6 6 7 6 5 5 6 6 6 6 7 7 6 6 6 6 6 6 6 6 6 6 5 5 5 5 5 5 4 4 5 6 6 6 6 6 7 8 8 5 4 4 5 5 2 3 3 3 3
3 4 4 4 4 2 2 3 3 3 2 3 4 6 7 6 5 5 5 4 4 4 3 3 4 4 3 3 3 3 5 4 5 5 5 6 6 6 6 6 6 7 7 6 6 7 7 7 6 6 6 6 6 7 6 6 5 5 5 5 5 4 2 3 3 4 5 5 6 6 6 6 7 7 9 1 2 3 3 4 3 2 3 3 2
4 5 5 6 2 2 3 3 3 5 6 6 6 6 6 6 7 7 6 7 6 6 6 5 5 4 3 2 2 3 2 2 3 7 6 5 6 6 6 6 7 7 7 6 6 6 7 7 6 6 6 5 6 7 6 5 5 5 4 4 4 4 4 4 4 5 5 5 5 5 5 6 6 7 6 2 2 2 2 3 3 3 2 2 3
5 4 2 3 3 4 5 5 6 5 3 4 5 5 5 5 7 7 7 7 7 5 4 5 5 4 4 4 3 2 0 1 0 2 4 6 6 5 6 7 7 6 5 5 5 6 6 6 6 6 6 6 7 7 6 5 4 5 4 4 3 3 5 5 3 4 4 5 5 5 5 6 6 6 5 5 4 1 1 0 3 3 4 3 2
2 2 3 1 5 6 6 5 4 6 6 5 5 5 5 6 6 6 6 7 7 7 6 6 4 4 3 3 3 5 5 4 6 6 6 6 5 6 6 6 5 6 6 6 6 6 6 6 6 6 6 7 7 6 6 5 4 3 3 3 3 5 6 6 3 3 5 5 5 5 5 5 6 6 5 4 6 4 1 2 3 3 3 3 5
1 4 2 2 4 5 4 4 6 6 6 6 6 6 7 6 6 6 6 6 6 7 7 7 6 5 4 4 3 3 5 5 6 5 4 6 5 5 5 5 5 5 5 5 6 6 6 5 6 6 6 6 6 6 5 5 4 3 2 2 3 4 5 6 6 8 6 4 4 5 5 6 6 5 3 4 5 4 1 2 1 0 2 3 4
2 2 0 4 7 6 6 6 5 6 6 6 6 6 6 6 6 6 6 6 6 7 7 7 8 8 8 8 6 5 4 3 2 4 5 6 6 6 6 6 6 5 5 5 6 6 6 6 5 5 6 7 6 6 5 5 3 3 3 2 2 5 6 6 6 9 9 7 5 5 5 6 5 5 6 6 6 4 4 1 1 2 3 3 4
Wind_Direction
340 340 312 211 193 184 188 191 204 208 205 200 192 199 209 222 202 205 194 207 210 229 198 188 193 193 196 196 204 195 188 203 200 183 196 202 206 209 224 221 221 231 223 235 246 269 283 285 281 272 252 238 232 254 282 278 283 282 294 186 159 164 159 169 191 247 296 247 229 253 291 341 326 330 342 336 344 343 342 334 332 326 315 294 109
160 170 184 322 267 189 184 184 193 205 222 228 212 198 204 213 203 203 209 209 203 213 221 215 174 196 199 197 199 208 204 197 201 191 192 199 207 209 218 234 219 217 206 215 236 239 265 279 282 278 272 254 246 244 236 247 263 323 25 20 167 206 198 174 212 187 245 300 288 295 336 344 317 311 35 333 328 323 337 334 349 7 29 40 96
184 151 150 167 303 293 99 64 63 47 27 25 11 357 356 352 338 298 233 221 213 203 210 211 212 191 193 199 200 205 207 206 200 197 195 196 202 209 213 218 224 205 201 209 209 217 242 250 252 253 254 253 247 247 251 257 287 79 76 226 137 227 229 189 155 209 218 252 233 249 304 302 270 271 308 294 292 295 312 328 351 37 33 24 95
173 190 145 162 181 109 127 133 124 157 195 161 163 157 126 239 121 328 342 347 345 307 220 204 205 208 214 201 192 211 212 203 203 199 195 194 198 204 210 211 208 211 214 208 211 214 224 232 240 241 242 252 256 242 40 69 115 122 149 304 89 217 285 188 185 178 208 199 284 185 254 297 285 278 279 302 304 310 281 296 27 56 42 50 68
142 140 146 151 177 167 145 150 153 168 192 205 149 172 162 134 114 288 272 222 231 269 312 300 212 203 208 212 212 202 203 200 201 205 205 192 186 195 207 216 225 225 216 218 219 213 215 211 219 231 242 244 257 243 226 164 155 147 171 219 183 178 167 133 167 157 172 200 244 248 226 244 247 261 247 301 321 308 331 341 68 80 53 33 96
119 109 123 178 211 202 147 123 139 163 181 180 179 196 183 173 168 177 157 232 299 307 281 339 332 324 257 211 205 211 211 205 192 193 195 203 203 197 193 204 211 219 231 228 220 214 210 218 236 227 210 217 231 220 200 139 154 162 199 226 233 138 135 148 202 170 164 215 207 279 296 249 291 269 243 201 255 305 326 319 64 88 83 46 11
73 93 120 122 146 150 124 137 164 166 151 178 199 196 171 153 154 165 182 175 182 251 252 149 204 255 300 306 260 206 205 205 200 199 202 196 192 196 213 215 212 213 221 236 355 1 351 331 286 218 218 214 215 181 162 182 200 193 192 206 184 132 174 210 196 204 204 209 241 233 250 262 231 267 263 189 197 224 238 332 331 291 98 146 246
104 39 77 135 160 162 146 149 158 142 145 135 218 220 177 167 176 176 180 191 172 115 108 141 192 237 254 267 284 246 189 198 202 202 195 201 206 207 197 199 2 357 49 76 145 182 209 232 262 250 208 206 180 163 160 196 217 214 207 185 178 157 194 221 240 231 221 223 221 244 238 244 265 253 242 140 230 276 193 170 242 274 283 249 216
97 97 112 106 109 114 109 85 71 80 142 175 202 235 299 55 192 213 208 196 156 126 165 145 153 177 225 355 295 292 225 180 162 134 128 124 117 134 123 85 74 113 147 121 148 200 219 259 269 250 189 170 177 183 197 203 180 180 186 146 158 179 192 212 216 226 236 232 261 263 261 266 258 258 255 217 215 230 192 154 225 243 266 295 262
49 54 35 56 116 121 105 90 90 98 111 159 130 238 256 237 237 248 2 92 134 164 203 269 121 118 152 22 9 300 273 163 134 120 111 130 156 168 154 139 128 119 128 146 167 198 216 228 264 247 223 209 222 226 198 203 210 199 197 192 195 193 210 224 230 221 221 229 236 233 247 257 259 258 245 239 223 130 136 175 213 251 303 287 270
45 77 105 300 44 89 123 122 130 128 133 205 166 290 337 272 262 251 163 181 205 250 103 210 199 184 164 152 163 239 276 251 125 122 134 157 175 184 193 165 155 169 163 171 196 225 239 235 229 248 243 220 200 185 200 217 221 221 216 218 214 208 216 227 233 226 226 231 233 230 238 253 252 244 233 232 206 192 202 190 209 225 257 347 303
19 3 355 2 21 44 48 81 119 137 109 46 55 165 223 264 314 358 341 292 315 320 223 250 235 225 204 180 187 194 208 184 143 159 158 164 182 172 171 174 188 184 175 180 187 204 219 224 233 191 45 325 288 257 209 213 215 224 228 229 237 240 232 216 224 229 225 229 240 241 241 249 259 254 256 253 237 209 212 187 192 194 200 205 222
65 44 7 340 342 347 18 46 65 96 85 83 70 80 304 231 139 24 12 353 341 329 284 340 8 359 347 314 221 199 179 55 205 182 180 177 190 174 165 183 190 193 192 193 195 199 194 217 262 81 92 254 252 242 231 226 228 228 228 234 238 239 243 251 247 239 227 233 237 250 231 238 254 254 237 222 193 213 212 223 217 211 207 207 217
52 51 39 17 354 352 6 43 42 60 66 47 34 218 201 174 200 171 96 319 307 312 345 354 333 325 306 316 347 12 52 18 21 23 16 325 212 241 193 180 200 194 195 196 198 199 192 197 196 158 177 212 346 302 266 236 236 239 234 232 234 253 252 230 236 240 235 233 231 243 246 222 245 249 236 206 183 224 210 232 215 216 220 227 224
53 45 40 25 23 22 27 40 41 26 4 19 29 19 20 19 40 25 3 354 359 9 356 340 331 314 315 58 61 271 54 29 20 30 39 56 179 221 238 207 204 207 205 196 198 196 195 183 151 109 87 167 209 328 301 262 242 246 248 242 244 240 238 247 243 225 224 231 232 238 249 246 249 257 265 283 259 247 241 223 193 217 262 269 263
52 47 40 34 34 30 31 40 38 39 26 31 29 21 16 24 36 26 44 25 15 4 357 348 339 336 52 108 236 311 37 14 5 357 354 7 250 215 215 209 208 177 187 193 178 134 103 101 99 111 126 145 36 15 356 342 344 323 288 281 273 262 253 241 233 242 249 243 242 244 245 257 273 272 299 336 312 285 246 76 66 230 260 270 257
52 51 48 38 36 40 46 46 46 39 33 46 42 30 26 29 30 40 53 43 37 23 11 6 350 330 340 134 108 55 39 13 7 3 356 348 315 230 214 199 194 181 118 90 92 105 111 105 107 106 83 73 51 28 349 350 344 327 323 312 303 298 293 294 255 242 247 250 256 276 288 286 282 275 269 258 247 305 218 235 240 200 218 248 258
53 55 60 53 36 28 35 39 37 31 28 42 41 34 35 35 42 46 56 54 47 34 32 39 34 22 9 71 68 65 49 22 20 13 8 358 335 322 9 95 97 86 92 109 116 105 113 109 87 67 68 54 37 23 350 340 346 349 341 333 318 306 299 309 317 305 288 303 286 270 269 271 272 272 258 231 226 226 220 240 248 193 228 219 243
50 45 48 56 43 15 15 29 41 46 45 44 40 41 35 40 67 63 57 57 53 42 41 38 40 45 53 59 66 68 55 29 24 22 19 13 358 0 19 77 74 51 31 57 85 68 52 61 64 62 66 55 40 17 355 346 315 315 287 286 288 292 300 0 335 317 312 300 283 270 260 248 249 249 254 238 231 236 222 236 247 233 234 232 233
65 65 56 53 52 29 20 45 47 48 53 50 50 49 43 48 66 75 65 62 59 54 55 50 50 42 39 56 52 46 47 37 32 31 31 31 16 18 35 65 37 22 16 38 68 104 90 74 53 47 43 39 28 16 3 359 1 334 332 306 297 291 359 335 312 302 293 289 285 278 269 262 257 255 249 248 257 254 240 232 229 228 238 240 232
49 45 37 40 36 36 33 46 50 50 50 58 60 61 56 64 68 77 82 77 73 62 55 55 57 52 49 52 56 47 46 45 41 40 28 45 43 12 26 48 36 37 26 34 26 65 90 86 88 41 24 14 6 5 360 357 352 326 310 304 309 307 317 306 305 305 296 291 287 283 279 268 258 251 250 256 247 100 62 36 14 319 263 246 235
55 47 47 39 42 46 50 49 50 48 45 52 60 59 56 62 70 76 76 73 73 70 66 61 58 52 43 45 48 48 37 44 36 48 45 35 39 62 17 39 28 40 46 53 35 22 18 33 44 32 5 345 339 346 346 342 321 307 285 279 294 303 301 291 291 293 287 288 282 283 285 283 269 252 239 226 127 83 75 63 50 50 42 0 315
105 102 87 80 73 71 64 54 44 37 41 42 48 48 40 48 57 64 71 75 74 76 70 67 67 63 54 49 59 52 30 36 34 44 44 37 21 48 57 54 41 42 49 50 53 21 314 357 22 18 329 318 327 337 354 334 328 326 316 314 307 297 292 267 262 269 281 282 280 280 275 275 273 262 259 77 70 76 71 67 62 62 58 51 55
66 77 94 85 64 52 58 68 65 56 50 47 50 48 38 36 38 42 65 71 75 78 74 72 66 59 53 45 40 34 30 17 30 27 33 36 18 19 9 2 30 41 85 97 352 335 356 1 339 325 315 320 327 345 359 7 347 328 328 318 318 316 294 277 273 269 278 283 283 276 277 271 268 92 100 102 95 93 87 79 78 77 78 71 62
80 75 72 70 69 65 55 47 45 45 45 48 48 43 40 35 42 22 35 56 63 67 69 70 71 72 72 62 51 49 38 45 29 20 21 14 14 16 11 6 19 11 19 17 23 13 352 335 325 316 312 320 344 359 20 14 7 4 2 2 359 343 342 342 327 311 291 300 323 7 37 42 63 78 75 83 83 75 78 69 71 69 72 78 84
68 89 89 83 76 69 62 52 49 44 40 43 56 51 55 48 48 35 31 37 45 55 51 53 51 52 65 65 63 47 35 26 19 14 14 9 7 3 4 13 21 18 24 33 15 1 349 321 306 306 315 336 16 32 25 29 17 17 14 16 3 0 358 348 349 349 29 38 45 56 52 53 59 75 88 88 80 73 79 83 75 68 72 80 85
63 64 81 89 86 81 77 71 61 47 36 31 38 54 49 50 58 52 45 37 38 44 41 40 42 36 31 28 39 49 38 22 9 4 10 1 4 352 351 357 8 18 24 10 360 350 325 317 313 296 296 42 79 75 61 40 24 24 21 16 11 9 16 20 18 33 40 48 49 46 36 41 47 51 47 52 59 46 42 63 73 82 74 72 86
48 32 30 62 104 96 90 86 80 66 52 48 39 25 33 45 55 52 53 55 73 61 51 47 45 39 32 20 17 24 15 18 16 360 351 357 347 348 344 360 6 3 357 359 347 326 317 319 5 68 69 64 63 61 55 44 39 36 30 23 24 21 25 37 41 34 35 36 48 47 48 43 49 46 48 53 51 42 27 46 56 62 48 55 58
54 46 41 32 40 120 123 106 94 94 84 71 65 55 16 353 43 60 4 345 3 70 95 77 54 44 57 30 33 28 20 14 1 357 320 320 317 334 357 353 349 350 356 341 320 329 12 46 50 46 48 54 59 53 39 36 48 41 37 33 33 29 30 29 33 32 31 39 42 43 46 46 42 39 44 46 37 34 21 47 45 69 58 59 62
53 46 31 32 19 33 81 117 138 125 107 103 94 72 69 77 17 33 72 30 24 358 352 77 139 102 98 35 18 71 51 327 327 336 316 315 309 294 293 303 308 306 323 323 300 28 45 52 48 46 42 39 38 33 31 31 50 48 37 32 34 32 30 32 33 34 37 42 41 45 44 44 42 30 33 34 30 30 27 36 40 46 63 50 55
40 29 29 22 17 32 43 41 62 112 129 127 113 109 93 38 47 42 30 46 12 354 1 356 349 331 323 150 341 293 131 360 341 332 346 345 345 344 340 341 357 357 358 39 52 45 42 47 38 40 41 38 38 29 22 18 45 59 52 41 38 34 31 30 22 27 36 37 37 36 35 37 33 26 35 41 45 38 34 35 45 42 39 35 37
49 29 28 19 13 26 30 35 37 23 39 120 137 134 140 111 19 43 81 353 339 358 346 342 340 344 352 358 100 203 278 314 347 338 336 346 345 348 356 2 17 27 31 70 67 54 50 51 44 39 38 37 29 27 27 26 33 43 44 47 35 31 32 30 17 40 36 37 33 27 21 23 31 31 33 34 43 46 43 42 45 47 46 42 39
69 26 21 11 19 34 46 38 29 33 19 27 93 153 166 169 184 213 285 221 243 282 307 309 318 323 327 333 2 116 274 304 326 334 335 342 345 332 334 11 25 24 58 58 67 63 58 56 51 45 41 37 29 30 30 31 37 42 41 47 43 32 33 30 31 47 44 41 41 35 29 27 32 38 39 37 40 45 40 43 36 49 45 43 38
149 129 36 334 65 64 55 38 26 12 21 13 349 14 208 197 200 198 183 236 302 258 246 256 255 293 298 282 288 298 302 321 332 338 345 350 15 40 83 57 75 53 65 67 60 67 63 62 59 55 44 42 40 41 38 29 26 32 39 43 34 30 29 24 41 43 48 42 41 34 32 31 30 38 41 41 37 39 37 31 28 31 32 27 17
61 168 122 155 84 91 85 57 22 352 341 343 348 329 323 322 180 187 201 188 183 209 190 255 263 214 265 321 317 301 304 320 331 345 6 18 28 67 71 56 51 41 50 51 55 55 65 63 63 59 53 48 40 39 39 38 35 35 36 39 43 34 34 36 40 33 34 36 39 36 28 21 23 35 45 48 45 42 33 24 25 23 16 9 1
12 188 212 68 86 86 72 28 354 315 304 308 305 301 299 319 324 307 222 176 179 176 191 208 263 326 291 295 289 293 320 344 350 350 3 27 42 68 68 59 54 49 55 54 53 53 55 68 70 67 65 60 53 46 41 39 37 34 30 31 34 33 32 36 33 33 33 36 32 24 24 18 8 4 9 24 37 36 33 31 16 17 8 355 349
322 312 120 132 112 97 59 18 341 295 278 280 294 301 306 308 305 312 318 214 186 183 163 139 143 217 254 265 258 279 287 348 338 332 357 50 68 76 82 80 75 65 61 58 56 51 50 48 64 72 73 76 71 67 59 53 43 43 44 41 34 37 38 33 32 31 32 31 25 21 24 20 7 7 4 10 9 7 10 17 16 11 359 343 342
350 45 83 91 88 62 40 331 275 299 291 261 272 279 292 287 297 336 350 346 353 146 149 158 178 188 204 228 216 216 243 8 348 354 45 50 52 75 85 88 86 87 88 84 80 78 67 57 56 66 66 74 75 74 72 70 71 66 51 37 36 39 46 42 35 37 40 36 18 12 11 13 1 353 359 14 13 1 350 357 6 4 348 347 357
14 131 140 147 186 163 199 246 275 304 306 289 273 280 267 315 347 0 354 18 20 41 138 171 183 195 224 206 177 216 163 218 233 130 94 83 69 75 83 82 82 81 78 80 79 75 78 76 67 61 58 52 56 56 70 87 85 83 86 78 57 39 30 20 18 6 10 7 8 4 6 5 3 356 347 360 5 349 336 333 347 349 337 328 330
4 2 296 314 344 177 229 258 265 254 264 280 296 304 316 100 7 7 13 36 27 38 81 112 91 64 8 42 15 14 139 112 129 148 122 103 96 88 95 98 93 91 88 85 90 94 94 91 80 68 61 51 42 42 37 29 24 28 31 52 79 52 25 20 14 8 358 348 344 355 354 350 332 348 345 347 336 319 313 317 323 330 310 295 302
8 0 357 351 323 302 291 284 262 232 237 285 319 348 9 35 42 49 39 20 358 54 109 123 134 150 133 126 228 71 55 82 126 157 147 135 126 112 110 115 108 93 87 84 80 78 86 92 92 90 76 71 65 61 54 48 44 39 35 33 31 30 25 21 18 16 12 3 353 350 345 324 322 330 312 304 308 309 296 284 303 310 321 307 287
8 355 343 328 330 324 317 314 315 347 67 56 45 66 57 36 36 47 39 35 15 40 118 145 140 148 166 174 106 73 54 6 347 107 137 134 118 119 108 91 99 102 91 81 78 79 84 95 95 85 73 63 62 59 60 56 51 47 44 42 39 31 24 14 8 8 7 1 356 351 341 339 346 341 329 301 294 315 322 285 281 315 315 320 304
342 313 295 304 306 294 291 282 301 317 317 331 292 26 24 16 360 352 343 283 138 60 111 160 193 174 95 9 44 40 40 31 31 86 91 83 95 98 85 88 88 89 92 97 97 90 80 74 74 77 83 82 78 78 76 74 70 61 53 51 44 40 22 11 4 360 352 351 345 340 339 339 346 340 348 353 351 349 336 318 328 352 350 20 41
288 279 285 285 285 289 292 295 322 344 340 304 12 3 334 319 308 311 311 313 352 34 29 84 166 161 165 233 208 62 41 25 33 103 103 102 103 106 106 106 105 103 98 88 80 80 81 83 83 78 72 69 71 74 74 70 71 71 62 57 46 38 28 15 6 353 352 348 347 345 341 334 330 325 323 332 340 345 329 335 330 28 38 55 44
274 271 274 267 260 260 284 99 73 20 39 40 45 25 19 4 3 357 49 81 80 60 48 43 107 162 172 135 65 64 54 42 39 48 81 95 91 97 107 112 114 104 93 88 85 84 87 87 85 83 79 79 86 90 88 82 77 75 74 69 65 46 26 6 344 348 357 349 342 337 336 336 331 323 316 311 348 347 346 334 351 53 56 51 52
289 287 287 296 305 322 5 358 8 9 3 19 18 17 12 16 33 35 30 25 31 35 18 21 43 83 107 91 82 79 84 83 81 94 90 104 105 95 92 99 104 102 101 98 96 95 99 100 96 91 84 83 86 94 89 88 81 77 73 73 69 61 31 339 329 13 358 342 328 325 324 329 324 317 317 37 59 24 9 8 10 24 55 48 60
311 311 292 272 272 16 9 13 52 47 48 53 58 53 38 18 15 22 14 22 36 44 48 52 61 67 72 60 70 98 119 124 120 120 131 125 105 105 102 95 84 85 95 103 104 100 97 100 103 102 100 93 87 92 99 96 89 82 75 66 59 42 24 4 9 16 350 330 320 321 325 322 317 308 320 358 350 15 14 11 2 6 1 50 26
284 271 290 360 46 46 32 28 26 31 55 65 66 61 51 42 43 38 33 26 25 24 44 53 61 50 36 34 41 72 114 252 96 156 119 105 108 104 97 96 103 110 107 96 93 95 99 104 108 106 103 94 92 98 100 95 90 87 78 69 63 61 32 18 3 1 342 329 319 320 313 314 308 307 323 344 324 286 318 320 44 23 8 349 339
277 69 44 4 44 59 72 55 41 39 33 33 46 55 60 66 63 54 43 35 29 20 18 36 46 54 50 43 39 49 52 60 62 68 91 108 111 114 109 107 104 100 95 98 102 101 100 99 99 99 94 96 103 105 105 104 98 96 86 72 39 38 34 14 3 358 335 333 325 318 316 311 313 314 326 347 342 311 308 36 45 20 354 351 335
279 84 28 49 67 59 47 60 47 49 47 39 30 32 45 52 56 52 43 38 36 29 22 13 26 45 40 43 37 42 71 72 63 65 95 111 114 113 107 98 92 89 89 85 91 101 101 99 96 95 101 104 104 108 109 109 110 107 109 87 39 24 30 6 354 355 354 326 316 313 306 308 310 309 325 349 342 351 53 112 88 225 302 299 297
286 131 181 99 83 72 55 50 60 65 51 43 41 43 52 56 62 59 47 39 49 48 36 35 30 25 18 12 20 22 33 32 49 76 90 101 107 104 101 99 94 88 76 78 85 90 97 98 98 101 106 114 111 107 107 110 115 120 124 97 11 3 33 25 358 338 333 328 315 316 312 317 322 332 352 343 327 327 323 354 199 260 263 276 298